{"data":{"norad_id":61727,"epoch":"2026-09-21T17:37:10.667136Z","epoch_age_seconds":82218,"freshness":"FRESH","line1":"1 61727U 24196W   26264.73415124 -.00000803  00000+0 -12658-4 0  9990","line2":"2 61727  53.1589 267.7714 0000936  52.1658 307.9429 15.34381569107215","mean_motion":15.34381569,"eccentricity":9.36e-5,"inclination_deg":53.1589,"raan_deg":267.7714,"arg_perigee_deg":52.1658,"mean_anomaly_deg":307.9429,"bstar":-1.2658e-5,"rev_number":10721,"period_min":93.84888538113,"perigee_km":462.1177137976,"apogee_km":463.39832934564,"semimajor_km":6840.8950215716,"source":"CELESTRAK","updated_at":"2026-09-22T09:00:49.438879Z"}}